Weather Roundup
Issued by NWS

Home | Current Version | Previous Version | Graphics & Text | Print | Product List | Glossary Off
Versions: 1 2 3 4 5 6 7 8 9 10 11 12 13 14 15 16 17 18 19 20 21 22 23 24 25 26 27 28 29 30 31 32 33 34 35 36 37 38 39 40 41 42 43 44 45 46 47 48 49 50

000
NZUS93 KARX 200110
HRRWXR

CURRENT HOURLY OBSERVATIONS ACROSS
MUCH OF THE UPPER MISSISSIPPI VALLEY
NATIONAL WEATHER SERVICE LA CROSSE WI
800 PM CDT SUN OCT 19 2014


...SOUTHEAST MINNESOTA...


CITY           SKY/WX    TMP DP  RH WIND       PRES   REMARKS
ROCHESTER      CLEAR     56  45  66 SW9       29.83F
ROCHESTER/MAYO FAIR      61  42  49 SW12      29.81S
WINONA         CLEAR     57  46  67 CALM      29.80F
AUSTIN         CLEAR     55  45  67 SW6       29.83S
ALBERT LEA     CLEAR     59  46  63 SW7       29.84R
DODGE CENTER   PTCLDY    55  45  67 SW9       29.82S
PRESTON        CLEAR     57  45  64 SW9       29.84S
OWATONNA       CLEAR     54  43  66 SW7       29.83R
FARIBAULT      CLEAR     57  45  62 W5        29.83R
$$

...ELSEWHERE IN MINNESOTA...


CITY           SKY/WX    TMP DP  RH WIND       PRES   REMARKS
MINNEAPOLIS    CLEAR     64  44  48 W12       29.80R
INTNL FALLS    PTCLDY    46  40  79 NW5       29.80R
DULUTH         MOCLDY    57  41  55 NW9       29.76R
RED WING       CLEAR     52  45  76 CALM      29.78S
REDWOOD FALLS  CLEAR     63  40  42 NW9       29.86R
MANKATO        CLEAR     63  39  42 NW10      29.84R
WORTHINGTON    CLEAR     55  37  50 NW10      29.92R
FAIRMONT       CLEAR     55  39  54 W8        29.87R
$$

...SOUTHWEST WISCONSIN...


CITY           SKY/WX    TMP DP  RH WIND       PRES   REMARKS
LA CROSSE      CLEAR     58  46  64 S10       29.81F
PRAIRIE DU CHI PTCLDY    57  42  59 CALM      29.87S
BOSCOBEL       PTCLDY    55  43  63 SW8       29.87F
LONE ROCK      PTCLDY    56  43  61 SW6       29.87F
PLATTEVILLE    PTCLDY    51  43  75 CALM      29.91R
FORT MC COY    PTCLDY    55  43  63 CALM      29.83F
CAMP DOUGLAS   PTCLDY    56  46  69 S5        29.82F
VIROQUA        FAIR      53  45  74 SW10      29.84F
WIS DELLS      PTCLDY    53  41  65 SW9       29.85F
$$

...ELSEWHERE IN WISCONSIN...


CITY           SKY/WX    TMP DP  RH WIND       PRES   REMARKS
MILWAUKEE      PTCLDY    51  41  68 SW14      29.90F
MADISON        LGT RAIN  54  43  66 S8        29.89F
GREEN BAY      MOCLDY    52  43  71 SW10      29.82F
EAU CLAIRE     CLEAR     50  44  80 CALM      29.78S
BLACK RVR FLS  FAIR      54  44  68 SW3       29.80F
MEDFORD        CLEAR     43  41  92 CALM      29.79F
WAUSAU         PTCLDY    47  43  86 S3        29.79S
WIS RAPIDS     PTCLDY    53  44  71 S6        29.82F
MARSHFIELD     PTCLDY    50  43  77 SW7       29.80S
RICE LAKE      CLEAR     47  42  84 CALM      29.79S
$$

...NORTHEAST IOWA...


CITY           SKY/WX    TMP DP  RH WIND       PRES   REMARKS
DECORAH        PTCLDY    55  46  71 VRB7      29.85S
MASON CITY     CLEAR     58  47  66 SW10      29.87S
CHARLES CITY   CLEAR     55  45  67 SW8       29.87S
OELWEIN        CLEAR     54  46  76 SW9       29.89S
$$

...ELSEWHERE IN IOWA...


CITY           SKY/WX    TMP DP  RH WIND       PRES   REMARKS
DES MOINES     CLEAR     60  47  61 SW10      29.93F
IOWA CITY      CLEAR     54  44  69 S5        29.94S
FORT DODGE     CLEAR     54  45  71 SW3       29.90S
$$

...NORTHERN ILLINOIS...


CITY           SKY/WX    TMP DP  RH WIND       PRES   REMARKS
CHICAGO-OHARE  MOCLDY    52  42  69 S12       29.95F
CHICAGO-MIDWAY CLOUDY    54  43  66 S13       29.97F
MOLINE         PTCLDY    56  42  59 SW7       29.93F
ROCKFORD       MOCLDY    52  42  69 S10       29.95F
PEORIA         MOCLDY    57  44  62 SW13      30.00S
$$

NOTE: "FAIR" INDICATES FEW OR NO CLOUDS BELOW 12,000 FEET WITH NO
SIGNIFICANT WEATHER AND/OR OBSTRUCTIONS TO VISIBILITY. WIND
SPEEDS ARE IN MILES-PER-HOUR.



USA.gov is the U.S. government's official web portal to all federal, state and local government web resources and services.